Location: Newark
(47.5000°N, 4.6167°E)
Time: 02:47:52
(UTC+00:00)

X-37B - Pass Details

Date: 09 December 2021
Orbit: 334 x 337 km, 45.0° (Epoch: 11 January)

Event Time Altitude Azimuth Distance (km) Brightness Sun altitude
Rises 17:53:11 0° 244° (WSW) 2,099 5.8 -19.8°
Reaches altitude 10° 17:55:15 10° 235° (SW) 1,264 4.2 -20.1°
Enters shadow 17:57:14 31° 200° (SSW) 616 1.8 -20.5°
